Bennington, VT

6:15 PM EDT on September 24, 2017 (GMT -0400)
Morse State

Weather History for KDDH - November, 2013

Change the Weather History Date:

Thursday, November 28, 2013

  Actual Average Record
Temperature  
Mean Temperature 22 °F 35 °F  
Max Temperature 31 °F 42 °F 61 °F (2003)
Min Temperature 13 °F 27 °F 10 °F (2002)
Degree Days  
Heating Degree Days 43 30  
Month to date heating degree days 685 730  
Since 1 July heating degree days 1439 1551  
Cooling Degree Days 0 0  
Month to date cooling degree days 0 0  
Year to date cooling degree days 503 313  
Moisture  
Dew Point 15 °F    
Average Humidity 67    
Maximum Humidity 88    
Minimum Humidity 46    
Precipitation  
Precipitation 0.01 in 0.12 in 1.29 in (2003)
Month to date precipitation 2.61 2.89  
Year to date precipitation 41.90 37.69  
Sea Level Pressure  
Sea Level Pressure 30.00 in    
Wind  
Wind Speed 7 mph (WSW)    
Max Wind Speed 21 mph    
Max Gust Speed 28 mph    
Visibility 9 miles    
Events Snow    
T = Trace of Precipitation, MM = Missing Value Source: NWS Daily Summary

Daily Weather History Graph

Daily Weather History Graph

Search for Another Location

Airport or City:

Trip Planner

Search our weather history database for the weather conditions in past years. The results will help you decide how hot, cold, wet, or windy it might be!

Date:

Astronomy

Nov. 28, 2013 Rise Set
Actual Time 7:01 AM EST 4:20 PM EST
Civil Twilight 6:29 AM EST 4:52 PM EST
Nautical Twilight 5:54 AM EST 5:27 PM EST
Astronomical Twilight 5:20 AM EST 6:01 PM EST
Moon 1:54 AM EST (11/28) 1:34 PM EST (11/28)
Length of Visible Light 10h 22m
Length of Day
9h 19m
Waning Crescent, 22% of the Moon is Illuminated
Nov 28
Waning Crescent
Dec 2
New
Dec 9
First Quarter
Dec 17
Full
Dec 25
Last Quarter

Hourly Weather History & Observations

Time (EST) Temp. Windchill Dew Point Humidity Pressure Visibility Wind Dir Wind Speed Gust Speed Precip Events Conditions
12:05 AM 30.2 °F 20.8 °F 26.6 °F 86% 29.57 in 1.2 mi WSW 11.5 mph 20.7 mph 0.00 in Snow Light Snow
12:26 AM 30.2 °F 20.8 °F 26.6 °F 86% 29.59 in 3.0 mi WSW 11.5 mph 19.6 mph 0.01 in Snow Light Snow
12:39 AM 30.2 °F 23.4 °F 26.6 °F 86% 29.59 in 4.0 mi Variable 6.9 mph 20.7 mph 0.01 in Snow Light Snow
12:54 AM 30.0 °F 20.5 °F 26.1 °F 85% 29.63 in 5.0 mi West 11.5 mph 19.6 mph 0.01 in Snow Light Snow
1:39 AM 28.4 °F 20.4 °F 23.0 °F 80% 29.64 in 10.0 mi WSW 8.1 mph 21.9 mph 0.00 in   Overcast
1:54 AM 28.9 °F 21.1 °F 21.9 °F 75% 29.68 in 10.0 mi WSW 8.1 mph 23.0 mph 0.00 in   Overcast
2:01 AM 28.4 °F 19.1 °F 21.2 °F 74% 29.66 in 10.0 mi West 10.4 mph 16.1 mph N/A   Overcast
2:54 AM 27.0 °F 17.3 °F 19.9 °F 75% 29.73 in 10.0 mi West 10.4 mph 25.3 mph N/A   Overcast
3:02 AM 26.6 °F 17.5 °F 19.4 °F 74% 29.71 in 10.0 mi SW 9.2 mph 18.4 mph N/A   Overcast
3:41 AM 24.8 °F 15.3 °F 19.4 °F 80% 29.74 in 10.0 mi WSW 9.2 mph 21.9 mph N/A   Overcast
3:54 AM 25.0 °F 17.1 °F 18.0 °F 75% 29.78 in 10.0 mi WSW 6.9 mph 18.4 mph N/A   Overcast
4:01 AM 24.8 °F 16.1 °F 17.6 °F 74% 29.76 in 10.0 mi WSW 8.1 mph - N/A   Overcast
4:21 AM 24.8 °F 14.6 °F 17.6 °F 74% 29.78 in 10.0 mi West 10.4 mph 17.3 mph N/A   Overcast
4:34 AM 24.8 °F 14.0 °F 17.6 °F 74% 29.80 in 10.0 mi West 11.5 mph 19.6 mph N/A   Overcast
4:54 AM 24.1 °F 13.7 °F 17.1 °F 75% 29.85 in 10.0 mi WSW 10.4 mph 18.4 mph N/A   Overcast
5:39 AM 24.8 °F 14.0 °F 15.8 °F 69% 29.88 in 10.0 mi West 11.5 mph 21.9 mph N/A   Overcast
5:54 AM 23.0 °F 11.7 °F 15.1 °F 72% 29.93 in 9.0 mi West 11.5 mph 16.1 mph 0.00 in   Overcast
6:44 AM 23.0 °F 11.7 °F 15.8 °F 74% 29.94 in 7.0 mi WSW 11.5 mph 17.3 mph 0.00 in Snow Light Snow
6:54 AM 23.0 °F 11.7 °F 15.1 °F 72% 29.98 in 9.0 mi West 11.5 mph 17.3 mph 0.00 in   Overcast
7:54 AM 19.9 °F 12.1 °F 12.0 °F 71% 30.04 in 10.0 mi West 5.8 mph - N/A   Mostly Cloudy
8:54 AM 19.9 °F 10.1 °F 9.0 °F 62% 30.09 in 10.0 mi NW 8.1 mph 20.7 mph N/A   Clear
9:54 AM 21.9 °F 14.5 °F 10.9 °F 63% 30.13 in 10.0 mi Variable 5.8 mph - N/A   Scattered Clouds
10:54 AM 23.0 °F 10.1 °F 8.1 °F 53% 30.16 in 10.0 mi West 15.0 mph 26.5 mph N/A   Partly Cloudy
11:54 AM 24.1 °F 15.2 °F 8.1 °F 51% 30.19 in 10.0 mi West 8.1 mph 23.0 mph N/A   Clear
12:54 PM 24.1 °F 16.0 °F 9.0 °F 53% 30.20 in 10.0 mi Variable 6.9 mph 16.1 mph N/A   Clear
1:54 PM 24.1 °F 15.2 °F 9.0 °F 53% 30.21 in 10.0 mi West 8.1 mph - N/A   Partly Cloudy
2:54 PM 24.1 °F 13.7 °F 8.1 °F 51% 30.25 in 10.0 mi West 10.4 mph 23.0 mph N/A   Mostly Cloudy
3:54 PM 24.1 °F 16.0 °F 6.1 °F 46% 30.27 in 10.0 mi West 6.9 mph 16.1 mph N/A   Clear
4:54 PM 23.0 °F 15.8 °F 7.0 °F 50% 30.31 in 10.0 mi Variable 5.8 mph - N/A   Clear
5:54 PM 21.9 °F 14.5 °F 7.0 °F 53% 30.33 in 10.0 mi West 5.8 mph - N/A   Clear
6:54 PM 21.0 °F 14.6 °F 8.1 °F 57% 30.36 in 10.0 mi SW 4.6 mph - N/A   Clear
7:54 PM 21.0 °F 13.4 °F 9.0 °F 60% 30.38 in 10.0 mi SSW 5.8 mph - N/A   Clear
8:54 PM 19.9 °F 12.1 °F 10.0 °F 65% 30.40 in 10.0 mi SSW 5.8 mph - N/A   Partly Cloudy
9:54 PM 17.1 °F - 10.0 °F 74% 30.41 in 10.0 mi Calm Calm - N/A   Partly Cloudy
10:54 PM 14.0 °F - 10.0 °F 84% 30.44 in 10.0 mi Calm Calm - N/A   Clear
11:54 PM 16.0 °F - 12.0 °F 84% 30.44 in 10.0 mi Calm Calm - N/A   Overcast